,

(GMT )
Osoyoos

Weather History for CWYY - April, 2013

Change the Weather History Date:

Sunday, April 28, 2013

  Actual Average Record
Temperature  
Mean Temperature 51 °F -  
Max Temperature 68 °F - - ()
Min Temperature 34 °F - - ()
Degree Days  
Heating Degree Days 14    
Growing Degree Days 1 (Base 50)    
Moisture  
Dew Point 29 °F    
Average Humidity 44    
Maximum Humidity 81    
Minimum Humidity 16    
Precipitation  
Precipitation 0.00 in - - ()
Sea Level Pressure  
Sea Level Pressure 29.93 in    
Wind  
Wind Speed 3 mph ()    
Max Wind Speed 12 mph    
Max Gust Speed 21 mph    
T = Trace of Precipitation, MM = Missing Value Source: Averaged Metar Reports

Daily Weather History Graph

Daily Weather History Graph

Search for Another Location

Airport or City:

Trip Planner

Search our weather history database for the weather conditions in past years. The results will help you decide how hot, cold, wet, or windy it might be!

Date:

Astronomy

Apr. 28, 2013 Rise Set
Actual Time 5:41 AM PDT 8:09 PM PDT
Civil Twilight 5:06 AM PDT 8:45 PM PDT
Nautical Twilight 4:21 AM PDT 9:29 PM PDT
Astronomical Twilight 3:30 AM PDT 10:22 PM PDT
Moon 11:54 PM PDT (4/28) 7:53 AM PDT (4/28)
Length of Visible Light 15h 39m
Length of Day
14h 28m
Waning Gibbous, 88% of the Moon is Illuminated
Apr 28
Waning Gibbous
May 2
Last Quarter
May 9
New
May 17
First Quarter
May 24
Full

Hourly Weather History & Observations

Time (PDT) Temp. Dew Point Humidity Pressure Visibility Wind Dir Wind Speed Gust Speed Precip Events Conditions
12:00 AM 51.1 °F 31.8 °F 48% 30.01 in - SE 3.5 mph - N/A   Unknown
1:00 AM 46.8 °F 32.9 °F 59% 30.02 in - ESE 2.3 mph - N/A   Unknown
2:00 AM 43.0 °F 32.9 °F 68% 30.03 in - SE 1.2 mph - N/A   Unknown
3:00 AM 39.6 °F 32.0 °F 74% 30.04 in - Calm Calm - N/A   Unknown
4:00 AM 37.0 °F 31.6 °F 81% 30.04 in - East 1.2 mph - N/A   Unknown
5:00 AM 37 °F 33 °F 79% 30.04 in - ENE 1.2 mph - -  
5:00 AM 37.2 °F 31.3 °F 79% 30.04 in - ENE 1.2 mph - N/A   Unknown
6:00 AM 36.9 °F 31.3 °F 80% 30.04 in - NE 1.2 mph - N/A   Unknown
7:00 AM 40.5 °F 34.9 °F 80% 30.06 in - SSE 1.2 mph - N/A   Unknown
8:00 AM 46.0 °F 35.2 °F 66% 30.05 in - NE 1.2 mph - N/A   Unknown
10:00 AM 53.2 °F 31.6 °F 44% 30.02 in - SW 3.5 mph - N/A   Unknown
11:00 AM 58 °F 27 °F 19% 30.01 in - South 2.3 mph - -  
11:00 AM 58.5 °F 27.1 °F 30% 30.01 in - South 2.3 mph - N/A   Unknown
12:00 PM 62.2 °F 24.8 °F 24% 29.99 in - South 3.5 mph - N/A   Unknown
1:00 PM 64.4 °F 25.7 °F 23% 29.94 in - SW 2.3 mph - N/A   Unknown
2:00 PM 65.5 °F 29.7 °F 26% 29.91 in - South 5.8 mph - N/A   Unknown
3:00 PM 67.8 °F 28.6 °F 23% 29.86 in - South 4.6 mph - N/A   Unknown
4:00 PM 67.1 °F 27.7 °F 23% 29.83 in - South 11.5 mph 20.7 mph N/A   Unknown
5:00 PM 65 °F 29 °F 16% 29.82 in - NW 6.9 mph - -  
5:00 PM 64.8 °F 29.5 °F 27% 29.82 in - NW 6.9 mph - N/A   Unknown
6:00 PM 65.1 °F 27.9 °F 25% 29.82 in - NNW 10.4 mph - N/A   Unknown
7:00 PM 61.2 °F 26.6 °F 27% 29.82 in - NNW 10.4 mph 17.3 mph N/A   Unknown
8:00 PM 59.4 °F 25.3 °F 27% 29.81 in - NW 4.6 mph - N/A   Unknown
9:00 PM 57.6 °F 23.2 °F 27% 29.80 in - West 3.5 mph - N/A   Unknown
10:00 PM 53.1 °F 25.0 °F 34% 29.78 in - ESE 2.3 mph - N/A   Unknown
11:00 PM 52 °F 29 °F 29% 29.76 in - West 1.2 mph - -  
11:00 PM 51.8 °F 29.3 °F 42% 29.76 in - West 1.2 mph - N/A   Unknown